{"data":{"norad_id":65188,"intl_designator":"2025-175Q","name":"STARLINK-34972","alt_names":[],"object_type":"PAYLOAD","status":"ACTIVE","operator":null,"country":"US","launch_date":"2025-08-14","launch_site_code":"AFWTR","launch_vehicle":null,"mission":null,"orbit_class":"UNKNOWN","rcs_meters":null,"size_class":null,"mass_kg":null,"dimensions":null,"purposes":["comms"],"wikipedia_slug":null,"has_3d_model":false,"image_url":null,"decayed_at":null,"tle_current":{"epoch":"2026-09-20T21:12:52.730496Z","epoch_age_seconds":87243,"freshness":"FRESH","line1":"1 65188U 25175Q   26263.88394364  .00014765  00000+0  45887-3 0  9999","line2":"2 65188  97.2844 132.8906 0001681  92.7475 267.3960 15.33439076 62162","mean_motion":15.33439076,"eccentricity":0.0001681,"inclination_deg":97.2844,"raan_deg":132.8906,"arg_perigee_deg":92.7475,"mean_anomaly_deg":267.396,"bstar":0.00045887,"rev_number":6216,"period_min":93.906567436397,"perigee_km":464.41037459077,"apogee_km":466.7112257912,"semimajor_km":6843.697800191,"source":"CELESTRAK","updated_at":"2026-09-21T09:00:35.530482Z"}}}